Preview of NWS' New Version of Forecast
This preview is not operational and should not be used for support decisions.
Latest weather observations around

Clayton Lake (K40B)

Using English Units (Switch to International System of Units)
Date/ Time (EST) Wind (mph) Vis. (mi) Weather Sky Cond. Temp (°F) Rel. Humidity Wind Chill (°F) Heat Index (°F) Pressure Precip. (in)
Air Dwpt 6 hour Altimeter (inHg) Sea level (inHg) 1 hr 3 hr 6 hr
Max Min
Feb 22 09:16 5   Clear   18 5     55% 11     30.71      
Feb 22 08:16 2   Clear   17 6     62%       30.72 0    
Feb 22 07:16 Calm   Clear   13 6     76%       30.69     0
Feb 22 06:16 Calm   Clear   10 5     80%       30.67      
Feb 22 05:16 Calm   Clear   12 6     76%       30.65      
Feb 22 04:16 Calm   Clear   14 7     74%       30.61   0  
Feb 22 03:16 Calm   Clear   15 7     70%       30.59      
Feb 22 02:16 Calm   Clear   17 6     63%       30.56 0    
Feb 21 19:16 7   Clear   37 27     68% 31     30.19     0
Feb 21 18:16 5   Clear   40 33     77% 37     30.11      
Feb 21 17:16 7   Clear   44 33     65% 40     30.06      
Feb 21 16:16 7   Clear   47 44     89% 43     30 0 0  
Feb 21 15:16 SW 8   Clear   50        % 47     29.93 0    
Feb 21 14:16 5   Clear   50        % 48     29.9      
Feb 21 13:16 3   Clear   48        % 47     29.91      
Feb 21 12:16 SSW 8   Clear   52 50     92%       29.91      
Notice The following observation data may not be complete
Feb 21 11:16 3   Clear            %       29.95      
Notice The following observation data may not be complete
Feb 21 10:16 Calm   Clear            %       29.97      
Notice The following observation data may not be complete
Feb 21 09:16 Calm   Clear            %       29.99      
Notice The following observation data may not be complete
Feb 21 08:16 5   Clear            %       29.99      
Notice The following observation data may not be complete
Feb 21 07:16 5   Clear            %       30     0
Notice The following observation data may not be complete
Feb 21 06:16 2   Clear            %       30.01 0    
Notice The following observation data may not be complete
Feb 21 05:16 5   Clear            %       30.04 0    
Notice The following observation data may not be complete
Feb 21 04:16 SSE 8   Clear            %       30.07   0  
Feb 21 03:16 3   Clear   36 36     100% 34     30.1 0    
Notice The following observation data may not be complete
Feb 21 02:16 6   Clear            %       30.13      
Notice The following observation data may not be complete
Feb 21 01:16 5   Clear            %       30.15 0   0
Notice The following observation data may not be complete
Feb 21 00:16 6   Clear            %       30.18 0    
Notice The following observation data may not be complete
Feb 20 23:32 5   Clear            %       30.19 0    
Notice The following observation data may not be complete
Feb 20 15:16 5   Clear            %       30.26 0    
Notice The following observation data may not be complete
Feb 20 14:16 6   Clear            %       30.26 0    
Notice The following observation data may not be complete
Feb 20 13:16 5   Clear            %       30.27 0   0
Feb 20 12:16 3   Clear   34 34     99% 32     30.29 0    
Notice The following observation data may not be complete
Feb 20 11:16 2   Clear            %       30.32 0    
Notice The following observation data may not be complete
Feb 20 10:17 3   Clear            %       30.32   0  
Notice The following observation data may not be complete
Feb 20 09:16 Calm   Clear            %       30.32 0    
Notice The following observation data may not be complete
Feb 20 08:16 Calm   Clear            %       30.31 0    
Notice The following observation data may not be complete
Feb 20 07:16 Calm   Clear            %       30.3     0
Notice The following observation data may not be complete
Feb 20 06:16 Calm   Clear            %       30.29 0    
Notice The following observation data may not be complete
Feb 20 05:16 Calm   Clear            %       30.27 0    
Notice The following observation data may not be complete
Feb 20 04:16 Calm   Clear            %       30.25 0 0  
Feb 20 03:16 Calm   Clear   32 32     100%       30.23 0    
Feb 20 02:16 Calm   Clear   33 29     88%       30.23      
Feb 20 01:16 Calm   Clear   33 29     85%       30.22      
Feb 20 00:16 Calm   Clear   33 29     85%       30.22      
Feb 19 23:16 3   Clear   33 29     85% 30     30.24      
Feb 19 22:16 3   Clear   33 27     79% 30     30.22      
Feb 19 21:16 S 8   Clear   35 25     65% 29     30.23      
Feb 19 20:16 S 9   Clear   35 24     62% 28     30.21      
Feb 19 19:16 S 10   Clear   35 23     61% 27     30.21      
Feb 19 18:16 S 9   Clear   35 22     60% 28     30.21      
Feb 19 17:16 5   Clear   35 21     55% 31     30.22      
Feb 19 16:16 S 9   Clear   39 21     48% 33     30.22      
Feb 19 15:16 S 11   Clear   39 20     47% 32     30.24      
Feb 19 14:16 S 15   Clear   39 18     42% 31     30.25      
Feb 19 13:16 S 10   Clear   39 16     38% 33     30.28      
Feb 19 12:16     Clear   36 18     48%       30.32      
Feb 19 11:16 SSE 13   Clear   34 18     52% 25     30.35      
Feb 19 10:16     Clear   31 17     56%       30.4      
Feb 19 09:16     Clear   28 16     61%              
Jun 12 02:16 Calm   Clear   57 52     83%       29.86      
Jun 11 23:16 Calm   Clear   64 56     75%       29.8      
Jun 11 18:16 WSW 8   Clear   85 54     35%   84   29.63      
Jun 11 16:16 SW 8   Clear   86 54     34%   84   29.61      
Jun 11 15:16 SW 11   Clear   86 54     34%   84   29.59      
Jun 10 20:17 Calm   Clear   62 47     58%       29.84      
Jun 10 10:16 SSW 9   Clear   59 36     42%       29.92      
Jun 09 17:16 3   Clear   63 57     79%       29.46      
Jun 08 03:16 3   Clear   58 50     75%       29.88      
Jun 08 01:16 3   Clear   56 49     78%       29.88